Location: El Escondido
(32.5691°N, 116.4250°W)
Time: 16:28:15
(UTC+00:00)

Daily predictions for brighter satellites

Satellite Brightness Start Highest point End
(mag) Time Altitude Azimuth Time Altitude Azimuth Time Altitude Azimuth
Thor Agena Rocket 4.2 12:00:07 10° N 12:04:36 34° WNW 12:06:44 24° WSW
YAOGAN 6 4.0 12:05:19 10° NNW 12:07:11 19° WNW 12:07:11 19° WNW
H-2A R/B 2.2 12:03:17 10° NNE 12:08:19 73° ESE 12:13:27 10° S
Cosmos 1805 3.7 12:05:59 10° NNW 12:09:20 33° W 12:10:49 24° SW
Cosmos 1707 3.9 12:10:44 10° SSE 12:14:11 42° E 12:17:39 10° NNE
DMSP B5D2-2 4.1 12:11:28 10° S 12:16:32 54° W 12:21:37 10° NNW
Cosmos 1553 Rocket 4.1 12:11:40 10° NNW 12:17:43 53° W 12:23:38 10° SSW
Iridium 51 4.4 12:15:52 17° SSW 12:18:05 38° W 12:21:16 10° NNW
Cosmos 1867 4.4 12:14:36 10° NW 12:19:04 26° WSW 12:23:29 10° SSW
Cosmos 1515 Rocket 3.6 12:15:51 10° SSW 12:20:13 60° W 12:24:37 10° N
Cosmos 921 Rocket 4.1 12:19:17 19° WSW 12:20:56 25° WNW 12:24:28 10° NNW
Cosmos 1943 4.3 12:18:21 10° S 12:23:43 46° ESE 12:29:08 10° NE
Cosmos 1461 3.2 12:20:47 10° NW 12:24:16 35° WSW 12:27:45 10° S
USA 290 4.2 12:23:34 10° N 12:26:22 32° ENE 12:29:09 10° SE
Delta 2 Rocket 4.4 12:23:37 13° SW 12:27:39 45° SSE 12:32:03 10° E
Cosmos 1470 Rocket 3.6 12:26:52 10° NNW 12:31:11 57° W 12:35:30 10° S
Cosmos 2278 Rocket 3.3 12:29:44 10° NW 12:33:59 22° W 12:38:13 10° SSW
USA 308 3.5 12:32:13 14° WSW 12:34:54 33° NW 12:38:29 10° NNE
Chandra Rocket (1) 2.8 12:33:51 14° WSW 12:36:42 55° S 12:45:47 10° E
Cosmos 1939 Rocket 2.6 12:33:12 10° N 12:36:57 68° WNW 12:40:42 10° SSW
Cosmos 468 4.5 12:35:36 10° SSW 12:40:52 74° WNW 12:46:09 10° NNE
Cosmos 1048 Rocket 4.3 12:38:28 10° SW 12:43:37 48° WNW 12:48:45 10° N
YAOGAN 11 4.1 12:39:28 10° S 12:43:52 73° WSW 12:48:23 10° NNW
ATLAS 2AS CENTAUR R/B 3.7 12:37:48 10° WSW 12:44:21 34° NW 12:50:48 10° NNE
SL-16 R/B 3.1 12:40:44 10° WSW 12:45:37 30° WNW 12:50:33 10° N
Cosmos 1975 4.5 12:45:03 10° WNW 12:47:03 14° W 12:49:03 10° WSW
Cosmos 1766 3.6 12:44:46 10° NNW 12:48:11 37° W 12:51:36 10° SSW
COSMO-SKYMED 1 3.8 12:45:49 10° SSE 12:49:58 48° ENE 12:54:10 10° N
Cosmos 1674 3.3 12:48:08 10° SW 12:51:11 30° W 12:54:16 10° NNW
KORONAS-FOTON 4.2 12:49:08 10° SSW 12:52:35 38° W 12:56:02 10° N
ARGOS 3.3 12:47:41 10° NNE 12:53:04 84° ESE 12:58:25 10° SSW
